owner,sensor,date,latitude,longitude,sea_surface_height_above_sea_level,qcFlag 
TCOON,ioos:station:TCOON:524:1,2015-09-01T14:24:00Z,29.8672,-93.9310,1.8,1111122 
TCOON,ioos:station:TCOON:524:1,2015-09-01T15:18:00Z,29.8672,-93.9310,1.761,1111122 
TCOON,ioos:station:TCOON:524:1,2015-09-01T16:24:00Z,29.8672,-93.9310,1.646,1111122 
TCOON,ioos:station:TCOON:524:1,2015-09-01T17:24:00Z,29.8672,-93.9310,1.623,1111122 
TCOON,ioos:station:TCOON:524:1,2015-09-01T18:18:00Z,29.8672,-93.9310,1.646,1111122 
TCOON,ioos:station:TCOON:524:1,2015-09-01T19:18:00Z,29.8672,-93.9310,1.648,1111122 
TCOON,ioos:station:TCOON:524:1,2015-09-01T20:12:00Z,29.8672,-93.9310,1.628,1111122 
TCOON,ioos:station:TCOON:524:1,2015-09-01T21:18:00Z,29.8672,-93.9310,1.631,1111122 
TCOON,ioos:station:TCOON:524:1,2015-09-01T22:24:00Z,29.8672,-93.9310,1.658,1111122 
TCOON,ioos:station:TCOON:524:1,2015-09-01T23:24:00Z,29.8672,-93.9310,1.675,1111122 
TCOON,ioos:station:TCOON:524:1,2015-09-02T00:24:00Z,29.8672,-93.9310,1.762,1111122 
TCOON,ioos:station:TCOON:524:1,2015-09-02T01:24:00Z,29.8672,-93.9310,1.83,1111122 
TCOON,ioos:station:TCOON:524:1,2015-09-02T02:24:00Z,29.8672,-93.9310,1.797,1111122 
TCOON,ioos:station:TCOON:524:1,2015-09-02T03:24:00Z,29.8672,-93.9310,1.793,1111122 
TCOON,ioos:station:TCOON:524:1,2015-09-02T04:24:00Z,29.8672,-93.9310,1.783,1111122 
TCOON,ioos:station:TCOON:524:1,2015-09-02T05:18:00Z,29.8672,-93.9310,1.741,1111122 
TCOON,ioos:station:TCOON:524:1,2015-09-02T06:24:00Z,29.8672,-93.9310,1.682,1111122 
TCOON,ioos:station:TCOON:524:1,2015-09-02T07:54:00Z,29.8672,-93.9310,1.7,1111122 
TCOON,ioos:station:TCOON:524:1,2015-09-02T09:18:00Z,29.8672,-93.9310,1.702,1111122 
TCOON,ioos:station:TCOON:524:1,2015-09-02T10:24:00Z,29.8672,-93.9310,1.754,1111122 
TCOON,ioos:station:TCOON:524:1,2015-09-02T11:24:00Z,29.8672,-93.9310,1.811,1111122 
TCOON,ioos:station:TCOON:524:1,2015-09-02T12:30:00Z,29.8672,-93.9310,1.772,1111122 
TCOON,ioos:station:TCOON:524:1,2015-09-02T13:30:00Z,29.8672,-93.9310,1.825,1111122 
TCOON,ioos:station:TCOON:524:1,2015-09-02T14:30:00Z,29.8672,-93.9310,1.823,1111122 
TCOON,ioos:station:TCOON:524:1,2015-09-02T15:30:00Z,29.8672,-93.9310,1.756,1111122 
TCOON,ioos:station:TCOON:524:1,2015-09-02T16:30:00Z,29.8672,-93.9310,1.698,1111122 
TCOON,ioos:station:TCOON:524:1,2015-09-02T17:30:00Z,29.8672,-93.9310,1.606,1111122 
TCOON,ioos:station:TCOON:524:1,2015-09-02T18:24:00Z,29.8672,-93.9310,1.61,1111122 
TCOON,ioos:station:TCOON:524:1,2015-09-02T19:24:00Z,29.8672,-93.9310,1.597,1111122 
TCOON,ioos:station:TCOON:524:1,2015-09-02T20:24:00Z,29.8672,-93.9310,1.659,1111122 
TCOON,ioos:station:TCOON:524:1,2015-09-02T21:30:00Z,29.8672,-93.9310,1.659,1111122 
TCOON,ioos:station:TCOON:524:1,2015-09-02T22:18:00Z,29.8672,-93.9310,1.618,1111122 
TCOON,ioos:station:TCOON:524:1,2015-09-02T23:18:00Z,29.8672,-93.9310,1.703,1111122 
TCOON,ioos:station:TCOON:524:1,2015-09-03T00:18:00Z,29.8672,-93.9310,1.823,1111122 
TCOON,ioos:station:TCOON:524:1,2015-09-03T01:24:00Z,29.8672,-93.9310,1.809,1111122 
TCOON,ioos:station:TCOON:524:1,2015-09-03T02:18:00Z,29.8672,-93.9310,1.812,1111122 
TCOON,ioos:station:TCOON:524:1,2015-09-03T03:18:00Z,29.8672,-93.9310,1.857,1111122 
TCOON,ioos:station:TCOON:524:1,2015-09-03T04:12:00Z,29.8672,-93.9310,1.829,1111122 
TCOON,ioos:station:TCOON:524:1,2015-09-03T05:12:00Z,29.8672,-93.9310,1.821,1111122 
TCOON,ioos:station:TCOON:524:1,2015-09-03T06:18:00Z,29.8672,-93.9310,1.831,1111122 
TCOON,ioos:station:TCOON:524:1,2015-09-03T07:48:00Z,29.8672,-93.9310,1.826,1111122 
TCOON,ioos:station:TCOON:524:1,2015-09-03T08:18:00Z,29.8672,-93.9310,1.865,1111122 
TCOON,ioos:station:TCOON:524:1,2015-09-03T09:12:00Z,29.8672,-93.9310,1.812,1111122 
TCOON,ioos:station:TCOON:524:1,2015-09-03T10:12:00Z,29.8672,-93.9310,1.826,1111122 
TCOON,ioos:station:TCOON:524:1,2015-09-03T11:12:00Z,29.8672,-93.9310,1.818,1111122 
TCOON,ioos:station:TCOON:524:1,2015-09-03T12:12:00Z,29.8672,-93.9310,1.83,1111122 
TCOON,ioos:station:TCOON:524:1,2015-09-03T13:24:00Z,29.8672,-93.9310,1.878,1111122 
TCOON,ioos:station:TCOON:524:1,2015-09-03T14:18:00Z,29.8672,-93.9310,1.858,1111122 
TCOON,ioos:station:TCOON:524:1,2015-09-03T15:18:00Z,29.8672,-93.9310,1.796,1111122 
TCOON,ioos:station:TCOON:524:1,2015-09-03T16:18:00Z,29.8672,-93.9310,1.774,1111122 
TCOON,ioos:station:TCOON:524:1,2015-09-03T17:30:00Z,29.8672,-93.9310,1.722,1111122 
TCOON,ioos:station:TCOON:524:1,2015-09-03T18:18:00Z,29.8672,-93.9310,1.652,1111122 
TCOON,ioos:station:TCOON:524:1,2015-09-03T19:18:00Z,29.8672,-93.9310,1.596,1111122 
TCOON,ioos:station:TCOON:524:1,2015-09-03T20:18:00Z,29.8672,-93.9310,1.582,1111122 
TCOON,ioos:station:TCOON:524:1,2015-09-03T21:18:00Z,29.8672,-93.9310,1.564,1111122 
TCOON,ioos:station:TCOON:524:1,2015-09-03T22:54:00Z,29.8672,-93.9310,1.633,1111122 
TCOON,ioos:station:TCOON:524:1,2015-09-03T23:12:00Z,29.8672,-93.9310,1.63,1111122 
TCOON,ioos:station:TCOON:524:1,2015-09-04T00:18:00Z,29.8672,-93.9310,1.667,1111122 
TCOON,ioos:station:TCOON:524:1,2015-09-04T01:18:00Z,29.8672,-93.9310,1.735,1111122 
TCOON,ioos:station:TCOON:524:1,2015-09-04T02:24:00Z,29.8672,-93.9310,1.807,1111122 
TCOON,ioos:station:TCOON:524:1,2015-09-04T03:30:00Z,29.8672,-93.9310,1.781,1111122 
TCOON,ioos:station:TCOON:524:1,2015-09-04T04:18:00Z,29.8672,-93.9310,1.795,1111122 
TCOON,ioos:station:TCOON:524:1,2015-09-04T05:30:00Z,29.8672,-93.9310,1.817,1111122 
TCOON,ioos:station:TCOON:524:1,2015-09-04T06:18:00Z,29.8672,-93.9310,1.81,1111122 
TCOON,ioos:station:TCOON:524:1,2015-09-04T08:18:00Z,29.8672,-93.9310,1.797,1111122 
TCOON,ioos:station:TCOON:524:1,2015-09-04T09:12:00Z,29.8672,-93.9310,1.808,1111122 
TCOON,ioos:station:TCOON:524:1,2015-09-04T10:18:00Z,29.8672,-93.9310,1.775,1111122 
TCOON,ioos:station:TCOON:524:1,2015-09-04T11:18:00Z,29.8672,-93.9310,1.799,1111122 
TCOON,ioos:station:TCOON:524:1,2015-09-04T12:12:00Z,29.8672,-93.9310,1.813,1111122 
TCOON,ioos:station:TCOON:524:1,2015-09-04T13:12:00Z,29.8672,-93.9310,1.795,1111122 
TCOON,ioos:station:TCOON:524:1,2015-09-04T14:18:00Z,29.8672,-93.9310,1.805,1111122 
TCOON,ioos:station:TCOON:524:1,2015-09-04T15:18:00Z,29.8672,-93.9310,1.736,1111122 
TCOON,ioos:station:TCOON:524:1,2015-09-04T16:18:00Z,29.8672,-93.9310,1.716,1111122 
TCOON,ioos:station:TCOON:524:1,2015-09-04T17:18:00Z,29.8672,-93.9310,1.623,1111122 
TCOON,ioos:station:TCOON:524:1,2015-09-04T18:12:00Z,29.8672,-93.9310,1.561,1111122 
TCOON,ioos:station:TCOON:524:1,2015-09-04T19:12:00Z,29.8672,-93.9310,1.553,1111122 
TCOON,ioos:station:TCOON:524:1,2015-09-04T20:24:00Z,29.8672,-93.9310,1.537,1111122 
TCOON,ioos:station:TCOON:524:1,2015-09-04T21:24:00Z,29.8672,-93.9310,1.494,1111122 
TCOON,ioos:station:TCOON:524:1,2015-09-04T22:24:00Z,29.8672,-93.9310,1.486,1111122 
TCOON,ioos:station:TCOON:524:1,2015-09-04T23:18:00Z,29.8672,-93.9310,1.484,1111122 
TCOON,ioos:station:TCOON:524:1,2015-09-05T00:30:00Z,29.8672,-93.9310,1.521,1111122 
TCOON,ioos:station:TCOON:524:1,2015-09-05T01:18:00Z,29.8672,-93.9310,1.561,1111122 
TCOON,ioos:station:TCOON:524:1,2015-09-05T02:42:00Z,29.8672,-93.9310,1.652,1111122 
TCOON,ioos:station:TCOON:524:1,2015-09-05T03:18:00Z,29.8672,-93.9310,1.661,1111122 
TCOON,ioos:station:TCOON:524:1,2015-09-05T04:30:00Z,29.8672,-93.9310,1.713,1111122 
TCOON,ioos:station:TCOON:524:1,2015-09-05T05:30:00Z,29.8672,-93.9310,1.733,1111122 
TCOON,ioos:station:TCOON:524:1,2015-09-05T06:18:00Z,29.8672,-93.9310,1.75,1111122 
TCOON,ioos:station:TCOON:524:1,2015-09-05T07:54:00Z,29.8672,-93.9310,1.78,1111122 
TCOON,ioos:station:TCOON:524:1,2015-09-05T09:18:00Z,29.8672,-93.9310,1.788,1111122 
TCOON,ioos:station:TCOON:524:1,2015-09-05T10:18:00Z,29.8672,-93.9310,1.786,1111122 
TCOON,ioos:station:TCOON:524:1,2015-09-05T11:24:00Z,29.8672,-93.9310,1.787,1111122 
TCOON,ioos:station:TCOON:524:1,2015-09-05T12:24:00Z,29.8672,-93.9310,1.761,1111122 
TCOON,ioos:station:TCOON:524:1,2015-09-05T13:18:00Z,29.8672,-93.9310,1.757,1111122 
TCOON,ioos:station:TCOON:524:1,2015-09-05T14:12:00Z,29.8672,-93.9310,1.75,1111122 
TCOON,ioos:station:TCOON:524:1,2015-09-05T15:18:00Z,29.8672,-93.9310,1.733,1111122 
TCOON,ioos:station:TCOON:524:1,2015-09-05T16:24:00Z,29.8672,-93.9310,1.664,1111122 
TCOON,ioos:station:TCOON:524:1,2015-09-05T17:12:00Z,29.8672,-93.9310,1.648,1111122 
TCOON,ioos:station:TCOON:524:1,2015-09-05T18:12:00Z,29.8672,-93.9310,1.614,1111122 
TCOON,ioos:station:TCOON:524:1,2015-09-05T19:12:00Z,29.8672,-93.9310,1.558,1111122 
TCOON,ioos:station:TCOON:524:1,2015-09-05T20:18:00Z,29.8672,-93.9310,1.561,1111122 
TCOON,ioos:station:TCOON:524:1,2015-09-05T21:12:00Z,29.8672,-93.9310,1.436,1111122 
TCOON,ioos:station:TCOON:524:1,2015-09-05T22:18:00Z,29.8672,-93.9310,1.396,1111122 
TCOON,ioos:station:TCOON:524:1,2015-09-05T23:18:00Z,29.8672,-93.9310,1.378,1111122 
TCOON,ioos:station:TCOON:524:1,2015-09-06T00:12:00Z,29.8672,-93.9310,1.409,1111122 
TCOON,ioos:station:TCOON:524:1,2015-09-06T01:12:00Z,29.8672,-93.9310,1.449,1111122 
TCOON,ioos:station:TCOON:524:1,2015-09-06T02:18:00Z,29.8672,-93.9310,1.484,1111122 
TCOON,ioos:station:TCOON:524:1,2015-09-06T03:18:00Z,29.8672,-93.9310,1.523,1111122 
TCOON,ioos:station:TCOON:524:1,2015-09-06T04:30:00Z,29.8672,-93.9310,1.637,1111122 
TCOON,ioos:station:TCOON:524:1,2015-09-06T05:18:00Z,29.8672,-93.9310,1.655,1111122 
TCOON,ioos:station:TCOON:524:1,2015-09-06T06:24:00Z,29.8672,-93.9310,1.682,1111122 
TCOON,ioos:station:TCOON:524:1,2015-09-06T07:30:00Z,29.8672,-93.9310,1.691,1111122 
TCOON,ioos:station:TCOON:524:1,2015-09-06T08:18:00Z,29.8672,-93.9310,1.681,1111122 
TCOON,ioos:station:TCOON:524:1,2015-09-06T09:18:00Z,29.8672,-93.9310,1.713,1111122 
TCOON,ioos:station:TCOON:524:1,2015-09-06T10:18:00Z,29.8672,-93.9310,1.729,1111122 
TCOON,ioos:station:TCOON:524:1,2015-09-06T11:24:00Z,29.8672,-93.9310,1.731,1111122 
TCOON,ioos:station:TCOON:524:1,2015-09-06T12:18:00Z,29.8672,-93.9310,1.713,1111122 
TCOON,ioos:station:TCOON:524:1,2015-09-06T13:18:00Z,29.8672,-93.9310,1.69,1111122 
TCOON,ioos:station:TCOON:524:1,2015-09-06T14:18:00Z,29.8672,-93.9310,1.667,1111122 
TCOON,ioos:station:TCOON:524:1,2015-09-06T15:18:00Z,29.8672,-93.9310,1.718,1111122 
TCOON,ioos:station:TCOON:524:1,2015-09-06T16:18:00Z,29.8672,-93.9310,1.68,1111122 
TCOON,ioos:station:TCOON:524:1,2015-09-06T17:18:00Z,29.8672,-93.9310,1.662,1111122 
TCOON,ioos:station:TCOON:524:1,2015-09-06T18:18:00Z,29.8672,-93.9310,1.635,1111122 
TCOON,ioos:station:TCOON:524:1,2015-09-06T19:18:00Z,29.8672,-93.9310,1.586,1111122 
TCOON,ioos:station:TCOON:524:1,2015-09-06T20:18:00Z,29.8672,-93.9310,1.546,1111122 
TCOON,ioos:station:TCOON:524:1,2015-09-06T21:18:00Z,29.8672,-93.9310,1.481,1111122 
TCOON,ioos:station:TCOON:524:1,2015-09-06T22:12:00Z,29.8672,-93.9310,1.455,1111122 
TCOON,ioos:station:TCOON:524:1,2015-09-06T23:24:00Z,29.8672,-93.9310,1.379,1111122 
TCOON,ioos:station:TCOON:524:1,2015-09-07T00:24:00Z,29.8672,-93.9310,1.398,1111122 
TCOON,ioos:station:TCOON:524:1,2015-09-07T01:18:00Z,29.8672,-93.9310,1.414,1111122 
TCOON,ioos:station:TCOON:524:1,2015-09-07T02:24:00Z,29.8672,-93.9310,1.43,1111122 
TCOON,ioos:station:TCOON:524:1,2015-09-07T03:24:00Z,29.8672,-93.9310,1.513,1111122 
TCOON,ioos:station:TCOON:524:1,2015-09-07T04:24:00Z,29.8672,-93.9310,1.562,1111122 
TCOON,ioos:station:TCOON:524:1,2015-09-07T05:24:00Z,29.8672,-93.9310,1.604,1111122 
TCOON,ioos:station:TCOON:524:1,2015-09-07T06:24:00Z,29.8672,-93.9310,1.636,1111122 
TCOON,ioos:station:TCOON:524:1,2015-09-07T07:48:00Z,29.8672,-93.9310,1.657,1111122 
TCOON,ioos:station:TCOON:524:1,2015-09-07T08:18:00Z,29.8672,-93.9310,1.672,1111122 
TCOON,ioos:station:TCOON:524:1,2015-09-07T09:24:00Z,29.8672,-93.9310,1.692,1111122 
TCOON,ioos:station:TCOON:524:1,2015-09-07T10:30:00Z,29.8672,-93.9310,1.72,1111122 
TCOON,ioos:station:TCOON:524:1,2015-09-07T11:24:00Z,29.8672,-93.9310,1.725,1111122 
TCOON,ioos:station:TCOON:524:1,2015-09-07T12:24:00Z,29.8672,-93.9310,1.734,1111122 
TCOON,ioos:station:TCOON:524:1,2015-09-07T13:30:00Z,29.8672,-93.9310,1.746,1111122 
TCOON,ioos:station:TCOON:524:1,2015-09-07T14:30:00Z,29.8672,-93.9310,1.763,1111122 
TCOON,ioos:station:TCOON:524:1,2015-09-07T15:24:00Z,29.8672,-93.9310,1.76,1111122 
TCOON,ioos:station:TCOON:524:1,2015-09-07T16:24:00Z,29.8672,-93.9310,1.745,1111122 
TCOON,ioos:station:TCOON:524:1,2015-09-07T17:24:00Z,29.8672,-93.9310,1.746,1111122 
TCOON,ioos:station:TCOON:524:1,2015-09-07T18:30:00Z,29.8672,-93.9310,1.736,1111122 
TCOON,ioos:station:TCOON:524:1,2015-09-07T19:24:00Z,29.8672,-93.9310,1.676,1111122 
TCOON,ioos:station:TCOON:524:1,2015-09-07T20:24:00Z,29.8672,-93.9310,1.647,1111122 
TCOON,ioos:station:TCOON:524:1,2015-09-07T21:18:00Z,29.8672,-93.9310,1.624,1111122 
TCOON,ioos:station:TCOON:524:1,2015-09-07T22:24:00Z,29.8672,-93.9310,1.551,1111122 
TCOON,ioos:station:TCOON:524:1,2015-09-07T23:18:00Z,29.8672,-93.9310,1.518,1111122 
TCOON,ioos:station:TCOON:524:1,2015-09-08T00:12:00Z,29.8672,-93.9310,1.493,1111122 
TCOON,ioos:station:TCOON:524:1,2015-09-08T01:18:00Z,29.8672,-93.9310,1.479,1111122 
TCOON,ioos:station:TCOON:524:1,2015-09-08T02:12:00Z,29.8672,-93.9310,1.52,1111122 
TCOON,ioos:station:TCOON:524:1,2015-09-08T03:18:00Z,29.8672,-93.9310,1.543,1111122 
TCOON,ioos:station:TCOON:524:1,2015-09-08T04:18:00Z,29.8672,-93.9310,1.585,1111122 
TCOON,ioos:station:TCOON:524:1,2015-09-08T05:18:00Z,29.8672,-93.9310,1.668,1111122 
TCOON,ioos:station:TCOON:524:1,2015-09-08T06:18:00Z,29.8672,-93.9310,1.72,1111122 
TCOON,ioos:station:TCOON:524:1,2015-09-08T07:48:00Z,29.8672,-93.9310,1.775,1111122 
TCOON,ioos:station:TCOON:524:1,2015-09-08T08:18:00Z,29.8672,-93.9310,1.762,1111122 
TCOON,ioos:station:TCOON:524:1,2015-09-08T09:12:00Z,29.8672,-93.9310,1.786,1111122 
TCOON,ioos:station:TCOON:524:1,2015-09-08T10:18:00Z,29.8672,-93.9310,1.792,1111122 
TCOON,ioos:station:TCOON:524:1,2015-09-08T11:24:00Z,29.8672,-93.9310,1.816,1111122 
TCOON,ioos:station:TCOON:524:1,2015-09-08T12:18:00Z,29.8672,-93.9310,1.821,1111122 
TCOON,ioos:station:TCOON:524:1,2015-09-08T13:12:00Z,29.8672,-93.9310,1.805,1111122 
TCOON,ioos:station:TCOON:524:1,2015-09-08T14:24:00Z,29.8672,-93.9310,1.774,1111122 
TCOON,ioos:station:TCOON:524:1,2015-09-08T15:18:00Z,29.8672,-93.9310,1.777,1111122 
TCOON,ioos:station:TCOON:524:1,2015-09-08T16:18:00Z,29.8672,-93.9310,1.79,1111122 
TCOON,ioos:station:TCOON:524:1,2015-09-08T17:24:00Z,29.8672,-93.9310,1.778,1111122 
TCOON,ioos:station:TCOON:524:1,2015-09-08T18:24:00Z,29.8672,-93.9310,1.812,1111122 
TCOON,ioos:station:TCOON:524:1,2015-09-08T19:18:00Z,29.8672,-93.9310,1.804,1111122 
TCOON,ioos:station:TCOON:524:1,2015-09-08T20:18:00Z,29.8672,-93.9310,1.807,1111122 
TCOON,ioos:station:TCOON:524:1,2015-09-08T21:18:00Z,29.8672,-93.9310,1.756,1111122 
TCOON,ioos:station:TCOON:524:1,2015-09-08T23:06:00Z,29.8672,-93.9310,1.652,1111122 
TCOON,ioos:station:TCOON:524:1,2015-09-09T00:24:00Z,29.8672,-93.9310,1.59,1111122 
TCOON,ioos:station:TCOON:524:1,2015-09-09T01:12:00Z,29.8672,-93.9310,1.593,1111122 
TCOON,ioos:station:TCOON:524:1,2015-09-09T02:18:00Z,29.8672,-93.9310,1.551,1111122 
TCOON,ioos:station:TCOON:524:1,2015-09-09T03:18:00Z,29.8672,-93.9310,1.553,1111122 
TCOON,ioos:station:TCOON:524:1,2015-09-09T04:12:00Z,29.8672,-93.9310,1.615,1111122 
TCOON,ioos:station:TCOON:524:1,2015-09-09T05:18:00Z,29.8672,-93.9310,1.637,1111122 
TCOON,ioos:station:TCOON:524:1,2015-09-09T06:18:00Z,29.8672,-93.9310,1.739,1111122 
TCOON,ioos:station:TCOON:524:1,2015-09-09T07:42:00Z,29.8672,-93.9310,1.795,1111122 
TCOON,ioos:station:TCOON:524:1,2015-09-09T08:12:00Z,29.8672,-93.9310,1.795,1111122 
TCOON,ioos:station:TCOON:524:1,2015-09-09T09:12:00Z,29.8672,-93.9310,1.817,1111122 
TCOON,ioos:station:TCOON:524:1,2015-09-09T10:12:00Z,29.8672,-93.9310,1.826,1111122 
TCOON,ioos:station:TCOON:524:1,2015-09-09T11:18:00Z,29.8672,-93.9310,1.829,1111122 
TCOON,ioos:station:TCOON:524:1,2015-09-09T12:12:00Z,29.8672,-93.9310,1.828,1111122 
TCOON,ioos:station:TCOON:524:1,2015-09-09T13:18:00Z,29.8672,-93.9310,1.812,1111122 
TCOON,ioos:station:TCOON:524:1,2015-09-09T14:12:00Z,29.8672,-93.9310,1.825,1111122 
TCOON,ioos:station:TCOON:524:1,2015-09-09T15:18:00Z,29.8672,-93.9310,1.814,1111122 
TCOON,ioos:station:TCOON:524:1,2015-09-09T16:24:00Z,29.8672,-93.9310,1.793,1111122 
TCOON,ioos:station:TCOON:524:1,2015-09-09T17:24:00Z,29.8672,-93.9310,1.81,1111122 
TCOON,ioos:station:TCOON:524:1,2015-09-09T18:24:00Z,29.8672,-93.9310,1.841,1111122 
TCOON,ioos:station:TCOON:524:1,2015-09-09T19:24:00Z,29.8672,-93.9310,1.803,1111122 
TCOON,ioos:station:TCOON:524:1,2015-09-09T20:24:00Z,29.8672,-93.9310,1.806,1111122 
TCOON,ioos:station:TCOON:524:1,2015-09-09T21:18:00Z,29.8672,-93.9310,1.724,1111122 
TCOON,ioos:station:TCOON:524:1,2015-09-09T22:30:00Z,29.8672,-93.9310,1.699,1111122 
TCOON,ioos:station:TCOON:524:1,2015-09-09T23:42:00Z,29.8672,-93.9310,1.61,1111122 
TCOON,ioos:station:TCOON:524:1,2015-09-10T00:24:00Z,29.8672,-93.9310,1.577,1111122 
TCOON,ioos:station:TCOON:524:1,2015-09-10T01:18:00Z,29.8672,-93.9310,1.562,1111122 
TCOON,ioos:station:TCOON:524:1,2015-09-10T02:18:00Z,29.8672,-93.9310,1.543,1111122 
TCOON,ioos:station:TCOON:524:1,2015-09-10T03:12:00Z,29.8672,-93.9310,1.48,1111122 
TCOON,ioos:station:TCOON:524:1,2015-09-10T04:12:00Z,29.8672,-93.9310,1.518,1111122 
TCOON,ioos:station:TCOON:524:1,2015-09-10T05:12:00Z,29.8672,-93.9310,1.538,1111122 
TCOON,ioos:station:TCOON:524:1,2015-09-10T06:18:00Z,29.8672,-93.9310,1.551,1111122 
TCOON,ioos:station:TCOON:524:1,2015-09-10T07:42:00Z,29.8672,-93.9310,1.653,1111122 
TCOON,ioos:station:TCOON:524:1,2015-09-10T08:24:00Z,29.8672,-93.9310,1.685,1111122 
TCOON,ioos:station:TCOON:524:1,2015-09-10T09:18:00Z,29.8672,-93.9310,1.669,1111122 
TCOON,ioos:station:TCOON:524:1,2015-09-10T10:18:00Z,29.8672,-93.9310,1.712,1111122 
TCOON,ioos:station:TCOON:524:1,2015-09-10T11:12:00Z,29.8672,-93.9310,1.706,1111122 
TCOON,ioos:station:TCOON:524:1,2015-09-10T12:18:00Z,29.8672,-93.9310,1.718,1111122 
TCOON,ioos:station:TCOON:524:1,2015-09-10T13:18:00Z,29.8672,-93.9310,1.762,1111122 
TCOON,ioos:station:TCOON:524:1,2015-09-10T14:12:00Z,29.8672,-93.9310,1.764,1111122 
TCOON,ioos:station:TCOON:524:1,2015-09-10T15:12:00Z,29.8672,-93.9310,1.697,1111122 
TCOON,ioos:station:TCOON:524:1,2015-09-10T16:12:00Z,29.8672,-93.9310,1.71,1111122 
TCOON,ioos:station:TCOON:524:1,2015-09-10T17:18:00Z,29.8672,-93.9310,1.707,1111122 
TCOON,ioos:station:TCOON:524:1,2015-09-10T18:18:00Z,29.8672,-93.9310,1.749,1111122 
TCOON,ioos:station:TCOON:524:1,2015-09-10T19:18:00Z,29.8672,-93.9310,1.786,1111122 
TCOON,ioos:station:TCOON:524:1,2015-09-10T20:24:00Z,29.8672,-93.9310,1.723,1111122 
TCOON,ioos:station:TCOON:524:1,2015-09-10T21:18:00Z,29.8672,-93.9310,1.801,1111122 
TCOON,ioos:station:TCOON:524:1,2015-09-10T22:48:00Z,29.8672,-93.9310,1.701,1111122 
TCOON,ioos:station:TCOON:524:1,2015-09-10T23:12:00Z,29.8672,-93.9310,1.696,1111122 
TCOON,ioos:station:TCOON:524:1,2015-09-11T00:12:00Z,29.8672,-93.9310,1.63,1111122 
TCOON,ioos:station:TCOON:524:1,2015-09-11T01:18:00Z,29.8672,-93.9310,1.572,1111122 
TCOON,ioos:station:TCOON:524:1,2015-09-11T02:18:00Z,29.8672,-93.9310,1.514,1111122 
TCOON,ioos:station:TCOON:524:1,2015-09-11T03:18:00Z,29.8672,-93.9310,1.494,1111122 
TCOON,ioos:station:TCOON:524:1,2015-09-11T04:24:00Z,29.8672,-93.9310,1.528,1111122 
TCOON,ioos:station:TCOON:524:1,2015-09-11T05:24:00Z,29.8672,-93.9310,1.533,1111122 
TCOON,ioos:station:TCOON:524:1,2015-09-11T06:24:00Z,29.8672,-93.9310,1.542,1111122 
TCOON,ioos:station:TCOON:524:1,2015-09-11T07:48:00Z,29.8672,-93.9310,1.64,1111122 
TCOON,ioos:station:TCOON:524:1,2015-09-11T08:18:00Z,29.8672,-93.9310,1.64,1111122 
TCOON,ioos:station:TCOON:524:1,2015-09-11T09:12:00Z,29.8672,-93.9310,1.704,1111122 
TCOON,ioos:station:TCOON:524:1,2015-09-11T10:12:00Z,29.8672,-93.9310,1.7,1111122 
TCOON,ioos:station:TCOON:524:1,2015-09-11T11:18:00Z,29.8672,-93.9310,1.713,1111122 
TCOON,ioos:station:TCOON:524:1,2015-09-11T12:12:00Z,29.8672,-93.9310,1.717,1111122 
TCOON,ioos:station:TCOON:524:1,2015-09-11T13:12:00Z,29.8672,-93.9310,1.794,1111122 
TCOON,ioos:station:TCOON:524:1,2015-09-11T14:06:00Z,29.8672,-93.9310,1.703,1111122 
TCOON,ioos:station:TCOON:524:1,2015-09-11T15:18:00Z,29.8672,-93.9310,1.672,1111122 
TCOON,ioos:station:TCOON:524:1,2015-09-11T16:12:00Z,29.8672,-93.9310,1.81,1111122 
TCOON,ioos:station:TCOON:524:1,2015-09-11T17:24:00Z,29.8672,-93.9310,1.72,1111122 
TCOON,ioos:station:TCOON:524:1,2015-09-11T18:12:00Z,29.8672,-93.9310,1.701,1111122 
TCOON,ioos:station:TCOON:524:1,2015-09-11T19:12:00Z,29.8672,-93.9310,1.751,1111122 
TCOON,ioos:station:TCOON:524:1,2015-09-11T20:24:00Z,29.8672,-93.9310,1.736,1111122 
TCOON,ioos:station:TCOON:524:1,2015-09-11T21:12:00Z,29.8672,-93.9310,1.733,1111122 
TCOON,ioos:station:TCOON:524:1,2015-09-11T22:12:00Z,29.8672,-93.9310,1.737,1111122 
TCOON,ioos:station:TCOON:524:1,2015-09-11T23:36:00Z,29.8672,-93.9310,1.737,1111122 
TCOON,ioos:station:TCOON:524:1,2015-09-12T00:12:00Z,29.8672,-93.9310,1.664,1111122 
TCOON,ioos:station:TCOON:524:1,2015-09-12T01:24:00Z,29.8672,-93.9310,1.628,1111122 
TCOON,ioos:station:TCOON:524:1,2015-09-12T02:18:00Z,29.8672,-93.9310,1.594,1111122 
TCOON,ioos:station:TCOON:524:1,2015-09-12T03:18:00Z,29.8672,-93.9310,1.575,1111122 
TCOON,ioos:station:TCOON:524:1,2015-09-12T04:30:00Z,29.8672,-93.9310,1.53,1111122 
TCOON,ioos:station:TCOON:524:1,2015-09-12T05:18:00Z,29.8672,-93.9310,1.537,1111122 
TCOON,ioos:station:TCOON:524:1,2015-09-12T06:18:00Z,29.8672,-93.9310,1.594,1111122 
TCOON,ioos:station:TCOON:524:1,2015-09-12T07:42:00Z,29.8672,-93.9310,1.611,1111122 
TCOON,ioos:station:TCOON:524:1,2015-09-12T08:12:00Z,29.8672,-93.9310,1.601,1111122 
TCOON,ioos:station:TCOON:524:1,2015-09-12T09:12:00Z,29.8672,-93.9310,1.634,1111122 
TCOON,ioos:station:TCOON:524:1,2015-09-12T10:18:00Z,29.8672,-93.9310,1.666,1111122 
TCOON,ioos:station:TCOON:524:1,2015-09-12T11:12:00Z,29.8672,-93.9310,1.644,1111122 
TCOON,ioos:station:TCOON:524:1,2015-09-12T12:12:00Z,29.8672,-93.9310,1.676,1111122 
TCOON,ioos:station:TCOON:524:1,2015-09-12T13:12:00Z,29.8672,-93.9310,1.675,1111122 
TCOON,ioos:station:TCOON:524:1,2015-09-12T14:12:00Z,29.8672,-93.9310,1.668,1111122 
TCOON,ioos:station:TCOON:524:1,2015-09-12T15:12:00Z,29.8672,-93.9310,1.673,1111122 
TCOON,ioos:station:TCOON:524:1,2015-09-12T16:18:00Z,29.8672,-93.9310,1.618,1111122 
TCOON,ioos:station:TCOON:524:1,2015-09-12T17:12:00Z,29.8672,-93.9310,1.62,1111122 
TCOON,ioos:station:TCOON:524:1,2015-09-12T18:12:00Z,29.8672,-93.9310,1.615,1111122 
TCOON,ioos:station:TCOON:524:1,2015-09-12T19:12:00Z,29.8672,-93.9310,1.58,1111122 
TCOON,ioos:station:TCOON:524:1,2015-09-12T20:18:00Z,29.8672,-93.9310,1.632,1111122 
TCOON,ioos:station:TCOON:524:1,2015-09-12T21:18:00Z,29.8672,-93.9310,1.662,1111122 
TCOON,ioos:station:TCOON:524:1,2015-09-12T22:30:00Z,29.8672,-93.9310,1.63,1111122 
TCOON,ioos:station:TCOON:524:1,2015-09-12T23:18:00Z,29.8672,-93.9310,1.671,1111122 
TCOON,ioos:station:TCOON:524:1,2015-09-13T00:12:00Z,29.8672,-93.9310,1.694,1111122 
TCOON,ioos:station:TCOON:524:1,2015-09-13T01:12:00Z,29.8672,-93.9310,1.651,1111122 
TCOON,ioos:station:TCOON:524:1,2015-09-13T02:12:00Z,29.8672,-93.9310,1.593,1111122 
TCOON,ioos:station:TCOON:524:1,2015-09-13T03:12:00Z,29.8672,-93.9310,1.557,1111122 
TCOON,ioos:station:TCOON:524:1,2015-09-13T04:18:00Z,29.8672,-93.9310,1.508,1111122 
TCOON,ioos:station:TCOON:524:1,2015-09-13T05:30:00Z,29.8672,-93.9310,1.483,1111122 
TCOON,ioos:station:TCOON:524:1,2015-09-13T06:24:00Z,29.8672,-93.9310,1.5,1111122 
TCOON,ioos:station:TCOON:524:1,2015-09-13T08:12:00Z,29.8672,-93.9310,1.549,1111122 
TCOON,ioos:station:TCOON:524:1,2015-09-13T09:24:00Z,29.8672,-93.9310,1.591,1111122 
TCOON,ioos:station:TCOON:524:1,2015-09-13T10:24:00Z,29.8672,-93.9310,1.624,1111122 
TCOON,ioos:station:TCOON:524:1,2015-09-13T11:12:00Z,29.8672,-93.9310,1.692,1111122 
TCOON,ioos:station:TCOON:524:1,2015-09-13T12:12:00Z,29.8672,-93.9310,1.673,1111122 
TCOON,ioos:station:TCOON:524:1,2015-09-13T13:12:00Z,29.8672,-93.9310,1.68,1111122 
TCOON,ioos:station:TCOON:524:1,2015-09-13T14:12:00Z,29.8672,-93.9310,1.63,1111122 
TCOON,ioos:station:TCOON:524:1,2015-09-13T15:18:00Z,29.8672,-93.9310,1.652,1111122 